Location: Santa Fe
(35.6870°N, 105.9370°W)
Time: 08:53:49
(UTC-07:00)

Amateur Radio Satellites - All Passes

Search period start: 20 December 2014 08:23
Search period end: 21 December 2014 08:23
Location: Santa Fe, 35.6870°N, 105.9370°W

Satellite Date Start Highest point End Downlink Frequencies (MHz)
Time Altitude Azimuth
PHONESAT 2.4 20 Dec 08:28:24 08:32:01 73° 204° (SSW) 08:35:38 2401.200-2431.200
AAUSAT CUBESAT 2 20 Dec 08:36:18 08:39:49 25° 96° (E) 08:43:18 437.432
HO-68 20 Dec 08:43:29 08:50:30 57° 102° (ESE) 08:57:28 435.675
ANTELSAT 20 Dec 08:47:31 08:49:21 13° 65° (ENE) 08:51:12 437.575/2403.000
CANX-2 20 Dec 08:47:46 08:52:04 64° 101° (E) 08:56:20 2200.000
CINEMA 3 20 Dec 08:48:52 08:52:28 21° 95° (E) 08:56:08 145.822/145.860
BRITE-PL 20 Dec 09:00:58 09:05:44 88° 283° (WNW) 09:10:54 437.365/2234.400
QB50P1 20 Dec 09:01:17 09:01:46 10° 65° (ENE) 09:02:15 145.935-145.965
COMPASS 1 20 Dec 09:10:45 09:15:01 78° 102° (ESE) 09:19:15 437.405
UWE-3 20 Dec 09:14:15 09:17:35 19° 94° (E) 09:20:56 435.000/436.395/437.385
FUNcube-1 20 Dec 09:14:59 09:17:47 16° 93° (E) 09:20:35 145.935
SEEDS 20 Dec 09:15:45 09:20:03 76° 283° (WNW) 09:24:18 437.485
CUTE 1.7 + AOD 2 20 Dec 09:18:42 09:22:57 59° 285° (WNW) 09:27:10 437.475
TIGRISAT 20 Dec 09:21:07 09:24:50 29° 70° (ENE) 09:28:39 435.000
CUSAT 1 20 Dec 09:24:10 09:27:28 60° 94° (E) 09:31:51 437.405
POPSAT HIP 1 20 Dec 09:26:59 09:30:09 21° 69° (ENE) 09:33:21 437.405
GOMX 1 20 Dec 09:29:44 09:34:29 62° 285° (WNW) 09:39:32 467.674
DELFI C3 20 Dec 09:29:50 09:33:46 42° 99° (E) 09:37:39 145.870
DX 1 20 Dec 09:30:37 09:34:40 38° 99° (E) 09:38:42 434.975-435.025
AISAT 20 Dec 09:32:19 09:34:09 12° 93° (E) 09:35:59 437.250
UNISAT 6 20 Dec 09:49:25 09:53:41 64° 75° (ENE) 09:58:06 437.425
HUMSAT D 20 Dec 09:51:09 09:54:35 23° 95° (E) 09:58:01 437.325/437.525
Oscar 11 20 Dec 09:53:36 09:57:59 80° 283° (WNW) 10:02:19 145.826/435.025
DUCHIFAT 1 20 Dec 09:54:14 09:58:13 44° 73° (ENE) 10:02:13 145.980
BUGSAT 1 20 Dec 09:55:18 09:59:03 35° 73° (ENE) 10:02:46 437.445
DOVE 4 20 Dec 09:57:06 10:01:38 43° 286° (WNW) 10:06:25 437.250
VERMONT LUNAR 20 Dec 09:58:06 09:58:08 10° 220° (SW) 09:58:10 437.305
UKube-1 20 Dec 10:01:53 10:06:14 89° 103° (ESE) 10:10:33 .
QB50P2 20 Dec 10:07:19 10:11:29 67° 76° (ENE) 10:15:41 145.880/145.840
PHONESAT 2.4 20 Dec 10:08:22 10:10:18 14° 218° (SW) 10:12:13 2401.200-2431.200
CUBEBUG 2 20 Dec 10:10:40 10:15:20 83° 283° (WNW) 10:20:05 437.445
AAUSAT CUBESAT 2 20 Dec 10:12:01 10:15:20 23° 290° (WNW) 10:18:38 437.432
DANDE 20 Dec 10:14:39 10:17:42 34° 287° (WNW) 10:21:38 436.750
POLYITAN 1 20 Dec 10:16:00 10:20:12 85° 77° (ENE) 10:24:26 437.675
NANOSAT C BR1 20 Dec 10:18:32 10:22:44 90° 254° (WSW) 10:26:58 145.865
ANTELSAT 20 Dec 10:21:23 10:25:37 52° 260° (W) 10:29:59 437.575/2403.000
ZACube-1 20 Dec 10:22:53 10:27:26 84° 283° (WNW) 10:32:02 437.345
VELOX 1 20 Dec 10:23:41 10:27:59 49° 100° (E) 10:32:16 145.980
CINEMA 3 20 Dec 10:25:20 10:29:40 36° 288° (WNW) 10:34:09 145.822/145.860
ESTCUBE 1 20 Dec 10:25:46 10:29:02 20° 95° (E) 10:32:17 437.505/2401.250
HO-68 20 Dec 10:32:08 10:37:42 25° 298° (WNW) 10:43:16 435.675
QB50P1 20 Dec 10:32:58 10:37:06 59° 259° (W) 10:41:16 145.935-145.965
RS-15 20 Dec 10:47:01 10:57:05 44° 108° (ESE) 11:07:04 29.354- 29.394
UWE-3 20 Dec 10:49:58 10:54:09 35° 288° (WNW) 10:58:23 435.000/436.395/437.385
FUNcube-1 20 Dec 10:49:59 10:54:15 41° 287° (WNW) 10:58:33 145.935
YUBILEINY 20 Dec 10:51:03 10:59:41 64° 81° (E) 11:08:16 435.215
O/OREOS (USA 219) 20 Dec 10:53:03 10:57:35 79° 252° (WSW) 11:02:07 437.305
TIGRISAT 20 Dec 10:58:21 11:01:35 21° 266° (W) 11:04:54 435.000
POPSAT HIP 1 20 Dec 11:02:20 11:05:53 26° 263° (W) 11:09:27 437.405
50 SAT 20 Dec 11:06:29 11:10:32 54° 285° (WNW) 11:14:36 437.505
DELFI C3 20 Dec 11:06:39 11:08:37 13° 293° (WNW) 11:10:35 145.870
AISAT 20 Dec 11:06:43 11:11:00 50° 286° (WNW) 11:15:18 437.250
DX 1 20 Dec 11:07:51 11:10:34 17° 293° (WNW) 11:13:17 434.975-435.025
CUBEBUG 1 20 Dec 11:13:44 11:18:04 68° 102° (ESE) 11:22:22 437.445
JUGNU 20 Dec 11:15:10 11:17:00 11° 167° (SSE) 11:18:50 437.505
HUMSAT D 20 Dec 11:26:41 11:30:18 27° 289° (WNW) 11:33:56 437.325/437.525
BUGSAT 1 20 Dec 11:32:19 11:34:38 15° 266° (W) 11:36:56 437.445
DUCHIFAT 1 20 Dec 11:32:30 11:34:16 12° 267° (W) 11:36:03 145.980
Oscar 19 20 Dec 11:33:03 11:35:46 15° 64° (ENE) 11:38:30 437.125/150
ESTCUBE 1 20 Dec 12:01:56 12:05:56 32° 289° (WNW) 12:09:54 437.505/2401.250
VELOX 1 20 Dec 12:01:58 12:04:07 14° 295° (WNW) 12:06:16 145.980
BEESAT 3 20 Dec 12:03:59 12:06:28 16° 109° (ESE) 12:08:59 437.485
TISAT 1 20 Dec 12:20:23 12:24:38 86° 283° (WNW) 12:28:52 437.305
SPROUT 20 Dec 12:22:49 12:27:08 87° 283° (WNW) 12:31:27 437.525
BEESAT 2 20 Dec 12:42:06 12:45:54 39° 114° (ESE) 12:49:47 435.950
YUBILEINY 20 Dec 12:49:16 12:55:41 24° 278° (W) 13:02:06 435.215
RS-15 20 Dec 12:58:44 13:09:11 49° 309° (NW) 13:19:45 29.354- 29.394
SWISSCUBE 20 Dec 13:00:07 13:04:30 35° 98° (E) 13:08:50 437.505
ITUPSAT 1 20 Dec 13:00:34 13:04:51 32° 98° (E) 13:09:05 437.325
JUGNU 20 Dec 13:01:37 13:05:15 17° 177° (S) 13:08:54 437.505
Oscar 19 20 Dec 13:09:29 13:14:32 61° 259° (W) 13:19:39 437.125/150
PCSat 20 Dec 13:09:36 13:14:45 48° 111° (ESE) 13:19:57 145.827
M-CUBED/EXP-1 PRIME 20 Dec 13:16:36 13:19:04 15° 96° (E) 13:21:25 437.505
Gurwin Techsat 1B 20 Dec 13:19:01 13:23:47 35° 70° (ENE) 13:28:34 435.225
HORYU 2 20 Dec 13:24:04 13:25:50 12° 64° (ENE) 13:27:35 437.375
ISS 20 Dec 13:24:14 13:27:32 73° 319° (NW) 13:30:50 145.825
ITAMSAT 1 20 Dec 13:24:40 13:29:48 68° 74° (ENE) 13:34:57 435.822/435.867
BEESAT 20 Dec 13:24:55 13:29:39 62° 101° (ESE) 13:34:20 436.000
BEESAT 3 20 Dec 13:40:29 13:44:18 38° 304° (NW) 13:48:11 437.485
AIST 2 20 Dec 13:45:45 13:49:58 86° 299° (WNW) 13:54:16 435.215
AO-7 20 Dec 13:52:14 13:58:18 23° 57° (ENE) 14:04:23 29.400- 29.500
SRMSAT 20 Dec 14:04:56 14:08:21 16° 174° (S) 14:11:46 437.500
BEESAT 2 20 Dec 14:21:29 14:24:19 18° 310° (NW) 14:27:10 435.950
AUBIESAT-1 20 Dec 14:24:31 14:28:48 84° 287° (WNW) 14:32:41 437.475
STARS 20 Dec 14:28:18 14:32:26 37° 99° (E) 14:36:34 437.465
KKS-1 20 Dec 14:31:26 14:35:53 65° 101° (ESE) 14:40:19 437.445
SWISSCUBE 20 Dec 14:38:35 14:42:05 21° 293° (WNW) 14:45:34 437.505
ITUPSAT 1 20 Dec 14:38:50 14:42:31 23° 292° (WNW) 14:46:11 437.325
JUGNU 20 Dec 14:50:12 14:53:32 15° 187° (S) 14:56:52 437.505
M-CUBED/EXP-1 PRIME 20 Dec 14:50:19 14:54:17 36° 293° (WNW) 14:57:56 437.505
GONETS M04 20 Dec 14:53:04 14:56:24 12° 62° (ENE) 14:59:42
PCSat 20 Dec 14:54:14 14:58:23 22° 308° (NW) 15:02:35 145.827
HORYU 2 20 Dec 14:57:35 15:01:58 56° 259° (W) 15:06:23 437.375
Gurwin Techsat 1B 20 Dec 14:59:28 15:03:45 25° 265° (W) 15:08:04 435.225
ISS 20 Dec 15:03:20 15:04:36 12° 336° (NNW) 15:05:53 145.825
BEESAT 20 Dec 15:04:56 15:06:55 13° 296° (WNW) 15:08:53 436.000
ITAMSAT 1 20 Dec 15:07:50 15:09:42 12° 269° (W) 15:11:34 435.822/435.867
RS-15 20 Dec 15:19:07 15:25:14 16° 339° (NNW) 15:31:26 29.354- 29.394
JAS-2 20 Dec 15:21:50 15:28:21 32° 68° (ENE) 15:34:26 435.910
AO-7 20 Dec 15:41:56 15:50:13 75° 254° (WSW) 15:58:36 29.400- 29.500
SRMSAT 20 Dec 15:53:15 15:56:47 16° 185° (S) 16:00:18 437.500
AIST 1 20 Dec 16:04:09 16:08:22 48° 93° (E) 16:12:34
STARS 20 Dec 16:05:42 16:08:35 17° 293° (WNW) 16:11:29 437.465
KKS-1 20 Dec 16:10:55 16:11:56 11° 296° (WNW) 16:12:57 437.445
Cubesat XI-IV 20 Dec 16:21:30 16:24:41 16° 64° (ENE) 16:27:51 437.490
GONETS M04 20 Dec 16:45:58 16:54:45 76° 82° (E) 17:03:26
CUTE-I 20 Dec 16:53:02 16:57:41 32° 69° (ENE) 17:02:20 437.470
JAS-2 20 Dec 17:05:41 17:13:05 48° 261° (W) 17:19:59 435.910
MOZHAYETS 4 20 Dec 17:16:49 17:21:24 65° 285° (WNW) 17:25:56
MaSat-1 20 Dec 17:35:01 17:35:43 11° 61° (ENE) 17:36:26 437.345
RS-15 20 Dec 17:38:52 17:44:33 15° 18° (NNE) 17:50:18 29.354- 29.394
AO-7 20 Dec 17:42:07 17:44:09 11° 270° (W) 17:46:11 29.400- 29.500
SRMSAT 20 Dec 17:44:11 17:45:09 10° 194° (SSW) 17:46:08 437.500
AIST 1 20 Dec 17:44:35 17:46:16 12° 288° (WNW) 17:47:58
Cubesat XI-IV 20 Dec 17:59:00 18:04:14 58° 259° (W) 18:09:30 437.490
PRISM 20 Dec 18:01:23 18:05:26 50° 100° (E) 18:09:25 437.425
CUTE-I 20 Dec 18:33:12 18:37:41 28° 264° (W) 18:42:12 437.470
CUBESAT XI-V 20 Dec 18:39:49 18:44:24 66° 101° (E) 18:48:57 437.345
GONETS M04 20 Dec 18:44:54 18:50:30 19° 280° (W) 18:56:05
STRAND 1 20 Dec 18:50:43 18:55:48 68° 102° (ESE) 19:00:51 437.568
MaSat-1 20 Dec 19:07:22 19:08:55 15° 252° (WSW) 19:10:31 437.345
HO-68 20 Dec 19:09:23 19:15:32 32° 64° (ENE) 19:21:41 435.675
DANDE 20 Dec 19:14:07 19:20:02 22° 70° (ENE) 19:26:21 436.750
AAUSAT CUBESAT 2 20 Dec 19:26:33 19:28:26 13° 66° (ENE) 19:30:20 437.432
DOVE 4 20 Dec 19:26:39 19:27:23 10° 65° (ENE) 19:28:07 437.250
CANX-2 20 Dec 19:38:21 19:42:07 31° 72° (ENE) 19:45:55 2200.000
PRISM 20 Dec 19:39:03 19:40:28 12° 295° (WNW) 19:41:53 437.425
CINEMA 3 20 Dec 19:50:28 19:51:56 12° 65° (ENE) 19:53:25 145.822/145.860
RS-15 20 Dec 19:50:38 20:01:12 43° 49° (NE) 20:12:07 29.354- 29.394
ISS 20 Dec 19:55:01 19:58:03 34° 36° (NE) 20:01:03 145.825
COMPASS 1 20 Dec 19:59:43 20:03:34 36° 73° (ENE) 20:07:27 437.405
CUSAT 1 20 Dec 20:03:51 20:11:38 56° 78° (ENE) 20:19:57 437.405
SEEDS 20 Dec 20:05:09 20:09:15 51° 74° (ENE) 20:13:24 437.485
CUTE 1.7 + AOD 2 20 Dec 20:08:38 20:12:51 67° 76° (ENE) 20:17:07 437.475
BRITE-PL 20 Dec 20:09:56 20:14:08 76° 77° (ENE) 20:18:16 437.365/2234.400
UWE-3 20 Dec 20:11:54 20:12:29 10° 64° (ENE) 20:13:04 435.000/436.395/437.385
DELFI C3 20 Dec 20:16:30 20:19:26 19° 69° (ENE) 20:22:23 145.870
CUBESAT XI-V 20 Dec 20:20:03 20:21:14 11° 296° (WNW) 20:22:26 437.345
DX 1 20 Dec 20:24:04 20:27:32 24° 69° (ENE) 20:31:00 434.975-435.025
SO-50 20 Dec 20:29:40 20:34:03 56° 116° (ESE) 20:38:36 436.795
STRAND 1 20 Dec 20:32:08 20:34:22 13° 297° (WNW) 20:36:36 437.568
GOMX 1 20 Dec 20:35:51 20:40:00 77° 258° (WSW) 20:44:10 467.674
HUMSAT D 20 Dec 20:42:59 20:44:17 11° 65° (ENE) 20:45:35 437.325/437.525
Oscar 11 20 Dec 20:45:27 20:49:40 53° 74° (ENE) 20:53:54 145.826/435.025
UKube-1 20 Dec 20:54:07 20:58:19 51° 74° (ENE) 21:02:31 .
DANDE 20 Dec 20:56:03 21:03:58 77° 264° (W) 21:12:40 436.750
HO-68 20 Dec 20:56:11 21:02:58 45° 260° (W) 21:09:47 435.675
AAUSAT CUBESAT 2 20 Dec 20:59:37 21:03:39 46° 261° (W) 21:07:44 437.432
DOVE 4 20 Dec 21:00:37 21:04:39 53° 260° (W) 21:08:44 437.250
BEESAT 2 20 Dec 21:06:17 21:08:12 13° 47° (NE) 21:10:05 435.950
CUBEBUG 2 20 Dec 21:06:35 21:10:39 56° 75° (ENE) 21:14:49 437.445
CANX-2 20 Dec 21:15:08 21:18:05 18° 266° (W) 21:21:03 2200.000
ZACube-1 20 Dec 21:16:27 21:20:29 52° 74° (ENE) 21:24:37 437.345
VELOX 1 20 Dec 21:19:06 21:22:59 31° 71° (ENE) 21:26:53 145.980
ESTCUBE 1 20 Dec 21:24:00 21:26:21 14° 66° (ENE) 21:28:42 437.505/2401.250
CINEMA 3 20 Dec 21:24:40 21:28:40 49° 261° (W) 21:32:46 145.822/145.860
ISS 20 Dec 21:32:03 21:34:26 19° 231° (SW) 21:36:49 145.825
COMPASS 1 20 Dec 21:36:52 21:39:23 16° 267° (W) 21:41:56 437.405
FUNcube-1 20 Dec 21:43:01 21:47:10 74° 259° (WSW) 21:51:25 145.935
SEEDS 20 Dec 21:44:11 21:45:21 11° 269° (W) 21:46:31 437.485
UWE-3 20 Dec 21:44:22 21:48:27 58° 260° (W) 21:52:39 435.000/436.395/437.385
UNISAT 6 20 Dec 21:45:26 21:48:42 18° 94° (E) 21:51:57 437.425
CUSAT 1 20 Dec 21:47:38 21:54:22 31° 272° (W) 22:01:27 437.405
DELFI C3 20 Dec 21:50:56 21:54:29 28° 263° (W) 21:58:04 145.870
50 SAT 20 Dec 21:51:47 21:55:44 61° 75° (ENE) 21:59:44 437.505
QB50P2 20 Dec 21:57:32 21:59:46 14° 93° (E) 22:02:00 145.880/145.840
YUBILEINY 20 Dec 21:58:07 22:01:11 12° 77° (ENE) 22:04:15 435.215
DX 1 20 Dec 22:00:03 22:03:39 25° 263° (W) 22:07:16 434.975-435.025
PCSat 20 Dec 22:00:57 22:05:09 22° 52° (NE) 22:09:19 145.827
AISAT 20 Dec 22:01:48 22:06:13 80° 257° (WSW) 22:10:39 437.250
BEESAT 3 20 Dec 22:02:39 22:06:43 51° 58° (ENE) 22:10:43 437.485
RS-15 20 Dec 22:02:55 22:13:50 56° 249° (WSW) 22:25:16 29.354- 29.394
POLYITAN 1 20 Dec 22:05:50 22:08:46 18° 94° (E) 22:11:41 437.675
CUBEBUG 1 20 Dec 22:07:23 22:11:26 39° 73° (ENE) 22:15:29 437.445
NANOSAT C BR1 20 Dec 22:07:50 22:10:48 18° 95° (E) 22:13:46 145.865
AIST 2 20 Dec 22:10:57 22:14:36 26° 53° (NE) 22:18:11 435.215
SO-50 20 Dec 22:12:06 22:14:58 16° 314° (NW) 22:17:54 436.795
HUMSAT D 20 Dec 22:15:35 22:19:35 51° 260° (W) 22:23:39 437.325/437.525
ANTELSAT 20 Dec 22:16:25 22:20:53 40° 98° (E) 22:25:19 437.575/2403.000
QB50P1 20 Dec 22:21:44 22:25:22 27° 97° (E) 22:28:59 145.935-145.965
Oscar 11 20 Dec 22:25:02 22:26:07 11° 269° (W) 22:27:12 145.826/435.025
UKube-1 20 Dec 22:33:19 22:34:44 11° 268° (W) 22:36:08 .
BEESAT 2 20 Dec 22:42:42 22:46:51 62° 244° (WSW) 22:50:54 435.950
DANDE 20 Dec 22:42:45 22:46:31 14° 277° (W) 22:50:25 436.750
POPSAT HIP 1 20 Dec 22:49:59 22:54:12 60° 101° (E) 22:58:26 437.405
TIGRISAT 20 Dec 22:51:36 22:56:19 83° 284° (WNW) 23:01:02 435.000
VELOX 1 20 Dec 22:56:21 22:59:34 20° 265° (W) 23:02:48 145.980
ZACube-1 20 Dec 22:56:35 22:57:10 10° 269° (W) 22:57:46 437.345
ESTCUBE 1 20 Dec 22:58:22 23:02:46 49° 260° (W) 23:07:11 437.505/2401.250
TISAT 1 20 Dec 23:10:12 23:14:13 47° 74° (ENE) 23:18:15 437.305
SPROUT 20 Dec 23:14:17 23:18:23 48° 74° (ENE) 23:22:30 437.525
BUGSAT 1 20 Dec 23:15:40 23:19:44 83° 283° (WNW) 23:23:49 437.445
DUCHIFAT 1 20 Dec 23:17:53 23:22:05 62° 285° (WNW) 23:26:18 145.980
UNISAT 6 20 Dec 23:21:12 23:25:34 39° 288° (WNW) 23:29:56 437.425
O/OREOS (USA 219) 20 Dec 23:24:59 23:27:46 16° 100° (E) 23:30:33 437.305
QB50P2 20 Dec 23:31:49 23:35:50 41° 287° (WNW) 23:39:51 145.880/145.840
POLYITAN 1 20 Dec 23:40:54 23:44:45 33° 288° (WNW) 23:48:35 437.675
BEESAT 3 20 Dec 23:42:54 23:44:24 12° 253° (WSW) 23:45:54 437.485
NANOSAT C BR1 20 Dec 23:42:56 23:46:41 31° 288° (WNW) 23:50:27 145.865
PCSat 20 Dec 23:43:36 23:48:47 48° 249° (WSW) 23:53:56 145.827
CUBEBUG 1 20 Dec 23:45:20 23:47:55 15° 266° (W) 23:50:31 437.445
YUBILEINY 20 Dec 23:47:44 23:56:28 80° 94° (E) 00:05:12 435.215
AIST 2 20 Dec 23:49:35 23:53:07 25° 249° (WSW) 23:56:35 435.215
ANTELSAT 20 Dec 23:54:07 23:57:19 18° 293° (WNW) 00:00:32 437.575/2403.000
QB50P1 20 Dec 23:57:49 00:01:05 22° 291° (WNW) 00:04:20 145.935-145.965
M-CUBED/EXP-1 PRIME 21 Dec 00:02:34 00:05:51 18° 61° (ENE) 00:09:10 437.505
SWISSCUBE 21 Dec 00:04:13 00:08:23 30° 70° (ENE) 00:12:33 437.505
ITUPSAT 1 21 Dec 00:04:56 00:09:00 28° 69° (ENE) 00:13:04 437.325
BEESAT 21 Dec 00:28:37 00:33:14 51° 73° (ENE) 00:37:53 436.000
POPSAT HIP 1 21 Dec 00:28:46 00:29:34 10° 295° (WNW) 00:30:22 437.405
TISAT 1 21 Dec 00:48:46 00:50:16 12° 268° (W) 00:51:45 437.305
SPROUT 21 Dec 00:53:09 00:54:42 12° 268° (W) 00:56:16 437.525
O/OREOS (USA 219) 21 Dec 01:02:41 01:06:49 37° 295° (WNW) 01:10:58 437.305
VERMONT LUNAR 21 Dec 01:05:42 01:07:21 13° 142° (SE) 01:09:00 437.305
AUBIESAT-1 21 Dec 01:09:39 01:14:26 81° 72° (ENE) 01:19:21 437.475
PHONESAT 2.4 21 Dec 01:21:56 01:22:56 11° 141° (SE) 01:23:56 2401.200-2431.200
STARS 21 Dec 01:23:18 01:26:47 24° 69° (ENE) 01:30:17 437.465
Oscar 19 21 Dec 01:23:58 01:29:07 61° 101° (E) 01:34:14 437.125/150
KKS-1 21 Dec 01:27:03 01:31:10 40° 72° (ENE) 01:35:19 437.445
M-CUBED/EXP-1 PRIME 21 Dec 01:35:46 01:40:24 49° 256° (WSW) 01:45:10 437.505
Gurwin Techsat 1B 21 Dec 01:39:03 01:42:31 18° 93° (E) 01:45:59 435.225
ITAMSAT 1 21 Dec 01:40:57 01:45:28 30° 97° (E) 01:49:58 435.822/435.867
SWISSCUBE 21 Dec 01:42:20 01:46:12 24° 264° (W) 01:50:04 437.505
ITUPSAT 1 21 Dec 01:42:47 01:46:48 26° 264° (W) 01:50:50 437.325
YUBILEINY 21 Dec 01:48:28 01:54:12 19° 293° (WNW) 01:59:57 435.215
BEESAT 21 Dec 02:08:49 02:11:19 14° 267° (W) 02:13:50 436.000
VERMONT LUNAR 21 Dec 02:41:44 02:45:14 70° 155° (SSE) 02:48:46 437.305
HORYU 2 21 Dec 02:52:17 02:56:24 34° 98° (E) 03:00:30 437.375
PHONESAT 2.4 21 Dec 02:57:33 03:01:08 60° 154° (SSE) 03:04:43 2401.200-2431.200
STARS 21 Dec 02:59:29 03:03:08 26° 263° (W) 03:06:48 437.465
Oscar 19 21 Dec 03:05:03 03:07:54 15° 296° (WNW) 03:10:44 437.125/150
KKS-1 21 Dec 03:05:21 03:07:57 15° 266° (W) 03:10:34 437.445
Gurwin Techsat 1B 21 Dec 03:17:36 03:22:42 49° 288° (WNW) 03:27:47 435.225
ITAMSAT 1 21 Dec 03:20:29 03:24:50 28° 292° (WNW) 03:29:10 435.822/435.867
AO-7 21 Dec 03:47:03 03:55:01 46° 101° (E) 04:02:54 29.400- 29.500
GONETS M04 21 Dec 03:51:03 03:55:54 16° 79° (ENE) 04:00:44
AIST 1 21 Dec 03:51:54 03:56:07 61° 266° (W) 04:00:18
MOZHAYETS 4 21 Dec 04:15:36 04:20:14 83° 77° (ENE) 04:24:55
JAS-2 21 Dec 04:20:09 04:24:35 25° 94° (E) 04:28:48 435.910
VERMONT LUNAR 21 Dec 04:20:21 04:23:43 40° 351° (N) 04:27:04 437.305
HORYU 2 21 Dec 04:29:35 04:32:48 20° 293° (WNW) 04:36:00 437.375
PHONESAT 2.4 21 Dec 04:36:26 04:39:55 44° 350° (N) 04:43:25 2401.200-2431.200
PRISM 21 Dec 04:49:42 04:53:14 26° 70° (ENE) 04:56:46 437.425
SO-50 21 Dec 05:04:12 05:08:18 26° 51° (NE) 05:12:24 436.795
CUTE-I 21 Dec 05:14:08 05:17:15 16° 93° (E) 05:20:21 437.470
AO-7 21 Dec 05:40:07 05:47:32 37° 298° (WNW) 05:54:56 29.400- 29.500
CUBESAT XI-V 21 Dec 05:40:25 05:44:52 45° 73° (ENE) 05:49:18 437.345
GONETS M04 21 Dec 05:42:36 05:51:27 87° 276° (W) 06:00:21
VERMONT LUNAR 21 Dec 05:59:04 06:02:26 40° 9° (N) 06:05:48 437.305
STRAND 1 21 Dec 06:03:40 06:08:45 72° 75° (ENE) 06:13:51 437.568
JAS-2 21 Dec 06:04:53 06:09:45 32° 292° (WNW) 06:14:21 435.910
PHONESAT 2.4 21 Dec 06:15:35 06:19:01 40° 7° (N) 06:22:28 2401.200-2431.200
Cubesat XI-IV 21 Dec 06:19:12 06:24:31 73° 102° (ESE) 06:29:49 437.490
PRISM 21 Dec 06:25:25 06:28:41 22° 264° (W) 06:31:58 437.425
SO-50 21 Dec 06:44:26 06:48:54 35° 247° (WSW) 06:53:20 436.795
CUTE-I 21 Dec 06:52:25 06:57:36 55° 287° (WNW) 07:02:46 437.470
CUBESAT XI-V 21 Dec 07:19:49 07:22:29 15° 267° (W) 07:25:09 437.345
VERMONT LUNAR 21 Dec 07:37:23 07:40:54 70° 205° (SSW) 07:44:25 437.305
GONETS M04 21 Dec 07:44:44 07:49:31 15° 295° (WNW) 07:54:21
STRAND 1 21 Dec 07:47:16 07:48:23 11° 269° (W) 07:49:29 437.568
PHONESAT 2.4 21 Dec 07:54:16 07:57:54 81° 203° (SSW) 08:01:32 2401.200-2431.200
SEEDS 21 Dec 07:55:31 07:56:36 11° 91° (E) 07:57:40 437.485
CUTE 1.7 + AOD 2 21 Dec 07:58:38 08:01:03 15° 93° (E) 08:03:27 437.475
Cubesat XI-IV 21 Dec 08:01:37 08:03:56 13° 298° (WNW) 08:06:15 437.490
